Other Surface Observations
Issued by NWS

Home | Current Version | Previous Version | Text Only | Print | Product List | Glossary On
Versions: 1 2 3 4 5 6 7 8 9 10 11 12 13 14 15 16 17 18 19 20 21 22 23 24 25 26 27 28 29 30 31 32 33 34 35 36 37 38 39 40 41 42 43 44 45 46 47 48 49 50
000
SXUS52 KTAE 271619
OSOTAE
OSOTAE
North Florida/South Alabama/Southwest Georgia Weather Roundup
National Weather Service Tallahassee Florida
1200 PM EDT WED MAY 27 2015

Note: "fair" indicates few or no clouds below 12,000 feet with no
significant weather and/or obstructions to visibility.

!FLZ017-115-028-034-025-271700
...North Florida...

CITY           SKY/WX    TMP DP  RH WIND       PRES   REMARKS
TALLAHASSEE    PTSUNNY   85  71  63 E9        30.19S HX  90
APALACHICOLA   PTSUNNY   86  72  62 SE10      30.18S HX  92
PERRY          MOSUNNY   85  69  57 E3        30.21S
CROSS CITY       N/A     84  67  56 SE8       30.20F
JACKSONVILLE   PTSUNNY   84  64  50 E10       30.22F
$$

!FLZ112-006-005-002-011-271700
...Florida Panhandle...

CITY           SKY/WX    TMP DP  RH WIND       PRES   REMARKS
MARIANNA       PTSUNNY   81  74  79 VRB3      30.20R
BONIFAY        PTSUNNY   82  74  76 VRB3      30.21R
PANAMA CITY NW PTSUNNY   84  72  67 SE7       30.19R
TYNDALL AFB    MOSUNNY   84  73  70 S8        30.19R HX  91
TYND DRONE APT FAIR      85  75  71 S13       30.18R HX  93
DE FUNIAK SPR  PTSUNNY   81  73  74 MISG      30.21R
EGLIN AFB      PTSUNNY   83  73  72 SE10      30.20R
DESTIN         SUNNY     83  75  77 SE12      30.19R HX  90
HURLBURT       MOSUNNY   82  73  74 SE12      30.18S
CRESTVIEW      MOSUNNY   86  73  65 MISG      30.20R HX  93
PENSACOLA      PTSUNNY   80  74  81 SE9       30.18S
$$

!ALZ063-066-271700
...South Alabama...

CITY           SKY/WX    TMP DP  RH WIND       PRES   REMARKS
DOTHAN         CLOUDY    75  71  87 SE5       30.26R
OZARK CAIRNS   CLOUDY    79  72  78 SE5       30.22R
FT RUCKER HELI CLOUDY    80  71  74 SE5       30.21R
RUCKER HELI 3  FAIR      80  72  75 SE9       30.23R
RUCKER HELI 2  CLOUDY    78  74  87 SE7         N/A
FLORALA APT    MOSUNNY   82  72  69 S6        30.21F
ANDALUSIA      MOSUNNY   87  70  56 SE8       30.20R HX  92
TROY           PTSUNNY   83  70  64 E5        30.23R
EUFALA         CLOUDY    80  71  74 VRB3      30.22R
MOBILE         PTSUNNY   83  71  67 S9        30.17F
$$

!GAZ120>161-271700
...Southwest and South Central Georgia...

CITY           SKY/WX    TMP DP  RH WIND       PRES   REMARKS
THOMASVILLE    PTSUNNY   82  72  69 SW6       30.22S
BAINBRIDGE     PTSUNNY   84  73  70 S6        30.21S HX  91
MOODY AFB      PTSUNNY   82  69  62 SE8       30.21S
VALDOSTA       MOSUNNY   82  70  66 SE7       30.22S
MOULTRIE       MOSUNNY   82  70  65 SE8       30.22F
BLAKELY        CLOUDY    79  73  83 S6        30.24R
ALBANY         PTSUNNY   82  70  66 S6        30.23S
TIFTON         FAIR      81  67  63 SE7       30.22S
FITZGERALD     FAIR      83  68  60 S5        30.26S
CORDELE        FAIR      82  72  70 S6        30.24S
AMERICUS       PTSUNNY   77  72  83 S5        30.25S
HOMERVILLE     FAIR      86  70  58 SE8       30.23S HX  90
$$

!GMZ750-755-770-775-271700
...Coastal and Buoy Obs...

STATION/POSITION TIME  TEMP    WIND        PRES    VSBY  WAVE
                       AIR SEA DIR/SP/G                  HT/PER
                 (UTC) (F)     (DEG/KT/KT) (MB)    (MI)  (FT/S)
KEATON BEACH     1600   80     180/ 11/ 12 1022.6F
CEDAR KEY        1600   79     130/  7/  8 1023.1F
C TOWER          1600   79     130/ 11/ 13 1021.7S
APALACHICOLA BUO 1550   80 81  120/ 14/ 16 1021.4F         3/ 5
PANAMA CITY BUOY 1550   80 81  150/  8/ 10 1021.4R         4/ 6
MOBILE BUOY      1550   80 80  140/  8/ 10 1021.5R         3/ 6
ORANGE BCH AL BU 1550   80 80  130/ 10/ 10 1021.2R         4/ 6
$$



USA.gov is the U.S. government's official web portal to all federal, state and local government web resources and services.